Location: Madrid
(40.4000°N, 3.6830°W)
Time: 03:45:36
(UTC+02:00)

ISS - Pass Details

Date: 02 July 2020
Orbit: 417 x 421 km, 51.6° (Epoch: 09 July)

Event Time Altitude Azimuth Distance (km) Brightness Sun altitude
Exits shadow 04:54:48 39° 261° (W) 638 -3.2 -16.9°
Maximum altitude 04:55:48 62° 325° (NW) 471 -3.5 -16.8°
Drops below altitude 10° 04:59:09 10° 48° (NE) 1,496 0.3 -16.4°
Sets 05:01:16 0° 52° (NE) 2,362 1.7 -16.2°
